Terminal Aerodrome Forecast
Issued by NWS

Home | Current Version | Previous Version | Graphics & Text | Print | Product List | Glossary On
Versions: 1 2 3 4 5 6 7 8 9 10 11 12
000
FTUS43 KIWX 190522
TAFSBN
TAF
KSBN 190522Z 1906/2006 21010KT P6SM FEW250 WS020/22040KT
     FM191000 25007KT P6SM FEW250
     FM200000 00000KT P6SM SKC=

USA.gov is the U.S. government's official web portal to all federal, state and local government web resources and services.